Lid_Strength_Index
4 4 4 3 3 3 3 3 3 3 3 3 2 3 3 3 3 5 8 5 3 -0 -1 3 3 2 2 5 4 5 12 14 12 12 10 6 8 5 5 6 5 5 6 4 2
4 4 3 3 3 3 3 3 3 3 2 2 2 2 2 3 6 8 3 2 1 1 3 4 5 3 6 6 6 9 12 12 8 8 9 7 7 6 7 7 7 6 4 3 3
3 3 3 3 3 3 3 3 2 2 3 2 2 2 2 3 8 7 -1 -2 -1 -1 2 2 3 4 7 6 7 8 12 9 8 7 7 8 8 5 7 8 6 7 6 4 4
3 3 3 3 3 2 2 2 2 2 2 2 2 1 0 3 13 2 -2 -2 -1 -1 1 3 4 7 9 10 7 11 8 8 8 7 7 9 6 7 8 7 6 4 5 4 5
3 3 3 2 2 2 2 2 2 2 1 1 -0 -2 0 5 5 -1 -3 -2 -1 0 3 4 6 7 10 8 8 10 9 7 7 7 7 7 8 8 7 6 6 4 5 5 4
3 2 2 2 2 2 2 2 1 1 0 -1 -2 -2 2 8 -0 -1 -0 -0 1 2 3 3 5 5 7 8 9 8 8 8 7 8 7 9 8 7 7 5 7 5 5 5 4
2 2 2 2 2 2 2 1 1 -0 -2 -2 -2 -0 4 6 -0 -1 -0 1 0 1 4 2 3 5 6 9 6 8 11 9 9 8 9 8 10 10 8 6 6 6 5 5 4
2 2 2 2 2 2 1 1 -0 -2 -2 -2 -2 1 6 -0 -1 0 0 1 0 0 2 1 2 5 6 6 8 11 10 14 10 9 8 9 14 8 7 7 7 6 6 5 5
2 2 2 2 1 1 1 0 -1 -2 -2 -2 1 3 7 -1 2 1 0 3 2 2 2 1 3 7 7 11 13 12 16 15 13 9 10 10 13 8 8 8 7 7 6 6 5
2 1 1 1 1 1 0 -1 -2 -2 -1 -0 1 5 4 5 3 2 1 2 4 4 5 6 7 10 10 12 18 16 16 14 14 11 10 11 12 9 8 9 7 7 6 6 6
1 1 1 1 1 1 1 2 4 4 3 6 6 7 6 4 3 4 3 4 4 6 11 8 12 14 12 11 11 12 14 15 13 10 11 12 11 10 8 9 10 7 7 7 7
1 1 1 1 1 1 1 4 4 3 8 5 5 6 4 4 8 6 3 8 10 11 9 11 14 10 9 10 11 12 14 15 12 10 11 12 12 10 9 10 11 11 8 7 8
1 1 1 2 2 2 2 3 1 1 9 7 6 7 6 6 8 7 4 8 10 11 11 13 11 9 10 11 13 13 14 14 14 12 11 12 14 12 10 10 10 10 9 8 9
1 1 1 2 4 2 3 1 0 1 12 10 9 6 6 6 8 3 3 6 9 12 11 12 8 10 11 13 11 15 11 11 13 14 18 12 19 14 11 11 12 11 12 12 11
1 1 1 2 3 3 2 1 1 3 20 10 10 4 5 8 7 7 3 6 11 11 11 14 11 11 13 12 11 14 10 11 12 14 14 15 17 14 11 13 13 12 13 13 13
1 1 2 4 1 2 1 2 4 13 20 13 9 10 10 8 8 6 6 5 6 10 10 11 8 9 11 9 10 9 11 11 11 13 19 15 16 17 14 12 13 13 13 14 14
1 2 3 3 4 2 2 4 13 18 11 14 13 11 10 11 10 9 10 10 12 15 15 12 12 9 9 12 10 11 13 19 20 20 21 14 16 17 14 13 11 14 14 14 14
3 4 4 4 2 2 3 9 18 16 15 10 11 11 12 10 11 10 11 13 10 11 14 16 18 12 9 11 13 12 13 18 23 22 20 15 18 17 13 12 11 13 14 14 15
2 4 5 3 2 3 7 15 16 14 11 12 11 14 13 11 11 12 12 12 11 10 15 16 16 10 9 8 9 13 15 12 16 19 19 17 16 14 13 13 13 14 13 14 15
4 5 6 3 2 3 9 13 13 10 10 10 14 13 15 14 13 13 13 11 12 10 9 12 17 12 10 8 9 11 11 16 16 23 22 18 18 18 15 14 14 14 14 14 15
5 9 5 3 2 7 13 14 11 9 9 11 12 14 13 13 12 13 13 11 11 11 9 10 13 14 11 13 13 13 14 13 14 16 19 20 19 13 13 13 14 14 14 14 15
6 12 5 3 9 9 13 12 9 10 8 9 9 11 12 12 13 13 13 11 9 10 11 10 13 16 15 11 10 10 12 12 17 19 17 17 17 11 12 12 13 14 14 14 15
11 9 4 4 12 12 11 11 9 10 9 10 10 9 10 12 15 12 11 9 9 9 12 10 15 18 16 13 11 13 11 11 12 13 18 20 18 11 12 12 12 14 14 15 15
8 13 10 7 7 11 13 11 11 8 9 8 10 8 11 13 11 13 12 9 8 8 7 8 13 17 18 16 13 15 12 12 14 18 17 17 17 14 13 13 13 13 14 15 15
10 13 11 11 10 9 9 10 11 11 8 8 9 10 11 15 13 12 11 10 8 7 9 10 17 14 12 12 12 13 13 13 15 17 19 16 16 14 14 13 13 12 13 14 15
12 12 9 10 8 9 9 11 12 10 10 10 11 10 10 14 14 14 13 12 11 10 11 10 18 15 17 12 12 14 13 13 15 15 15 15 15 12 11 11 12 12 12 13 14
8 8 8 7 8 10 10 10 11 9 8 8 9 10 11 12 11 11 10 10 11 12 13 14 17 18 22 16 15 17 15 13 12 12 14 17 13 11 12 12 12 11 11 11 12